Total_Precipitation_Accumulation
0.49 0.38 0.37 0.45 0.36 0.22 0.11 0.04 0.01 0.01 0.01 0.00 0.01 0.01 0.01 0.03 0.03 0.05 0.07 0.13 0.16 0.13 0.11 0.11 0.08 0.04 0.04 0.09 0.14 0.21 0.27 0.35 0.45 0.44 0.34 0.29 0.24 0.17 0.12 0.09 0.08 0.04 0.02
0.63 0.56 0.44 0.50 0.56 0.49 0.32 0.11 0.03 0.02 0.02 0.02 0.01 0.01 0.01 0.01 0.01 0.02 0.02 0.07 0.16 0.17 0.19 0.24 0.20 0.11 0.09 0.12 0.15 0.19 0.23 0.27 0.33 0.39 0.36 0.32 0.32 0.26 0.20 0.16 0.14 0.08 0.06
0.78 0.72 0.51 0.46 0.53 0.62 0.51 0.29 0.13 0.07 0.04 0.03 0.02 0.01 0.00 0.00 0.00 0.00 0.00 0.02 0.08 0.18 0.27 0.38 0.39 0.28 0.18 0.16 0.14 0.14 0.17 0.21 0.24 0.31 0.37 0.34 0.30 0.28 0.23 0.20 0.19 0.16 0.14
0.81 0.84 0.70 0.58 0.58 0.63 0.66 0.57 0.33 0.19 0.09 0.04 0.02 0.01 0.01 0.00 0.00 0.00 0.00 0.01 0.03 0.09 0.19 0.30 0.43 0.55 0.39 0.20 0.13 0.11 0.11 0.12 0.14 0.19 0.24 0.24 0.20 0.19 0.20 0.21 0.24 0.26 0.23
0.83 0.96 0.96 0.88 0.79 0.80 0.75 0.72 0.52 0.29 0.15 0.08 0.03 0.01 0.00 0.00 0.00 0.00 0.00 0.00 0.01 0.03 0.07 0.10 0.20 0.30 0.30 0.30 0.27 0.14 0.10 0.08 0.08 0.09 0.12 0.11 0.10 0.12 0.16 0.19 0.23 0.24 0.24
1.10 1.21 1.22 1.14 1.05 0.98 0.86 0.85 0.81 0.48 0.26 0.15 0.06 0.03 0.01 0.00 0.00 0.00 0.00 0.00 0.01 0.01 0.01 0.02 0.07 0.05 0.09 0.23 0.23 0.10 0.07 0.06 0.06 0.06 0.06 0.06 0.07 0.08 0.11 0.15 0.18 0.19 0.21
1.33 1.43 1.51 1.49 1.34 1.14 1.05 1.07 1.13 0.87 0.54 0.29 0.20 0.14 0.07 0.03 0.02 0.01 0.01 0.00 0.00 0.01 0.00 0.01 0.03 0.04 0.04 0.04 0.06 0.09 0.11 0.12 0.10 0.07 0.05 0.04 0.04 0.04 0.06 0.08 0.11 0.13 0.16
1.43 1.49 1.66 1.72 1.61 1.50 1.48 1.34 1.34 1.28 0.95 0.61 0.53 0.55 0.38 0.26 0.11 0.04 0.03 0.02 0.01 0.02 0.02 0.02 0.02 0.02 0.02 0.04 0.02 0.03 0.06 0.10 0.10 0.06 0.04 0.04 0.03 0.02 0.02 0.04 0.06 0.09 0.11
1.62 1.58 1.68 1.84 1.75 1.65 1.60 1.64 1.70 1.72 1.45 1.09 0.84 0.81 0.63 0.52 0.46 0.17 0.08 0.07 0.05 0.04 0.04 0.04 0.03 0.04 0.03 0.02 0.02 0.02 0.01 0.03 0.06 0.06 0.06 0.04 0.04 0.03 0.04 0.04 0.04 0.05 0.06
1.56 1.52 1.62 1.81 1.92 1.95 1.93 1.93 1.80 1.86 1.80 1.46 1.28 0.97 0.73 0.61 0.61 0.50 0.26 0.14 0.10 0.07 0.07 0.06 0.05 0.05 0.04 0.03 0.04 0.02 0.01 0.01 0.04 0.06 0.06 0.06 0.05 0.04 0.04 0.04 0.04 0.05 0.05
1.63 1.54 1.57 1.63 1.66 1.71 1.78 1.86 1.81 1.86 1.81 1.75 1.62 1.40 1.14 0.94 0.60 0.54 0.55 0.38 0.23 0.12 0.08 0.07 0.09 0.08 0.06 0.06 0.08 0.04 0.02 0.01 0.03 0.06 0.07 0.06 0.06 0.05 0.04 0.03 0.03 0.04 0.05
1.60 1.51 1.45 1.53 1.55 1.54 1.63 1.70 1.72 1.82 1.83 1.78 1.68 1.46 1.29 1.19 1.03 0.81 0.66 0.56 0.48 0.29 0.17 0.12 0.12 0.14 0.15 0.15 0.14 0.11 0.04 0.02 0.03 0.06 0.07 0.07 0.07 0.05 0.05 0.04 0.04 0.05 0.06
1.25 1.25 1.18 1.20 1.30 1.35 1.50 1.51 1.42 1.40 1.49 1.53 1.57 1.51 1.38 1.25 1.19 1.07 0.95 0.79 0.62 0.38 0.26 0.20 0.16 0.17 0.22 0.24 0.24 0.21 0.08 0.06 0.04 0.05 0.06 0.06 0.06 0.07 0.07 0.07 0.06 0.07 0.08
0.94 0.90 0.90 0.89 0.92 0.98 1.16 1.31 1.27 1.24 1.25 1.27 1.30 1.36 1.30 1.26 1.23 1.06 0.95 0.92 0.78 0.61 0.41 0.28 0.21 0.19 0.21 0.24 0.31 0.28 0.14 0.10 0.07 0.06 0.07 0.07 0.05 0.05 0.06 0.07 0.07 0.07 0.07
0.69 0.67 0.69 0.75 0.79 0.78 0.85 0.95 1.09 1.14 1.12 1.14 1.13 1.15 1.10 1.08 1.04 0.95 0.93 0.88 0.76 0.63 0.56 0.44 0.33 0.26 0.24 0.21 0.26 0.24 0.18 0.13 0.10 0.08 0.06 0.05 0.06 0.05 0.05 0.04 0.04 0.04 0.04
0.61 0.60 0.56 0.56 0.60 0.59 0.66 0.75 0.80 0.88 0.89 1.00 1.08 1.09 1.05 1.03 0.97 0.88 0.86 0.90 0.81 0.64 0.54 0.49 0.38 0.31 0.29 0.25 0.27 0.24 0.22 0.20 0.12 0.09 0.06 0.06 0.07 0.06 0.05 0.03 0.02 0.02 0.02
0.47 0.47 0.47 0.50 0.49 0.47 0.47 0.47 0.50 0.56 0.60 0.66 0.66 0.67 0.77 0.87 0.90 0.87 0.82 0.83 0.85 0.74 0.59 0.58 0.44 0.40 0.41 0.34 0.31 0.24 0.21 0.21 0.18 0.13 0.11 0.09 0.07 0.06 0.05 0.04 0.03 0.02 0.02
0.39 0.39 0.41 0.45 0.45 0.49 0.48 0.46 0.45 0.45 0.50 0.56 0.55 0.50 0.52 0.59 0.64 0.72 0.75 0.74 0.76 0.79 0.72 0.70 0.66 0.53 0.48 0.44 0.44 0.40 0.31 0.29 0.29 0.28 0.27 0.18 0.12 0.08 0.07 0.05 0.04 0.02 0.01
0.50 0.48 0.51 0.56 0.54 0.55 0.53 0.51 0.47 0.45 0.45 0.49 0.49 0.47 0.46 0.45 0.49 0.55 0.63 0.70 0.72 0.74 0.73 0.67 0.72 0.71 0.57 0.51 0.46 0.41 0.37 0.40 0.38 0.34 0.39 0.35 0.27 0.19 0.15 0.12 0.09 0.06 0.05
0.50 0.50 0.56 0.62 0.69 0.75 0.74 0.68 0.62 0.54 0.49 0.49 0.51 0.48 0.42 0.38 0.43 0.58 0.67 0.70 0.69 0.69 0.71 0.71 0.73 0.74 0.65 0.53 0.47 0.47 0.51 0.55 0.48 0.38 0.31 0.32 0.30 0.24 0.20 0.17 0.16 0.14 0.12
0.43 0.44 0.51 0.58 0.65 0.74 0.78 0.76 0.61 0.51 0.49 0.49 0.46 0.43 0.40 0.39 0.37 0.46 0.56 0.73 0.72 0.74 0.74 0.75 0.74 0.67 0.58 0.47 0.46 0.50 0.51 0.57 0.50 0.44 0.38 0.31 0.31 0.28 0.25 0.23 0.23 0.22 0.19
0.37 0.39 0.42 0.38 0.39 0.45 0.59 0.54 0.41 0.35 0.39 0.45 0.46 0.45 0.43 0.38 0.33 0.32 0.31 0.45 0.58 0.67 0.74 0.71 0.70 0.66 0.61 0.53 0.56 0.52 0.44 0.41 0.41 0.46 0.38 0.37 0.33 0.31 0.34 0.32 0.37 0.41 0.36
0.33 0.35 0.30 0.24 0.23 0.27 0.31 0.27 0.30 0.35 0.37 0.38 0.43 0.48 0.52 0.47 0.45 0.45 0.35 0.33 0.34 0.38 0.45 0.50 0.57 0.58 0.58 0.54 0.52 0.49 0.45 0.42 0.36 0.34 0.29 0.29 0.29 0.27 0.28 0.27 0.26 0.27 0.27
0.28 0.35 0.29 0.26 0.26 0.23 0.25 0.28 0.27 0.32 0.41 0.44 0.44 0.45 0.53 0.55 0.57 0.62 0.54 0.54 0.44 0.35 0.35 0.35 0.41 0.43 0.40 0.45 0.50 0.58 0.56 0.41 0.30 0.26 0.21 0.17 0.18 0.17 0.15 0.15 0.16 0.14 0.14
0.19 0.17 0.21 0.35 0.33 0.29 0.34 0.32 0.25 0.29 0.37 0.43 0.41 0.45 0.53 0.59 0.74 0.77 0.75 0.69 0.54 0.42 0.43 0.49 0.49 0.46 0.45 0.47 0.48 0.52 0.51 0.44 0.36 0.34 0.27 0.18 0.15 0.13 0.10 0.09 0.09 0.08 0.07
0.09 0.09 0.12 0.23 0.30 0.30 0.29 0.19 0.20 0.29 0.36 0.44 0.47 0.47 0.64 0.65 0.72 0.70 0.67 0.72 0.66 0.50 0.42 0.45 0.45 0.44 0.40 0.43 0.50 0.53 0.59 0.60 0.49 0.40 0.31 0.23 0.21 0.20 0.18 0.14 0.09 0.06 0.05